This is the latest recevied weather packets stored in our database for station/object PA1CD-13. If no packets are shown the sender has not sent any weather packets the latest 1 day(s).
| Time | Temp. | Humidity | Pressure | Rain* | Wind** | Luminosity | Snow |
|---|---|---|---|---|---|---|---|
| 1778060010 | 13.89° C | 55% | 1008.4 hPa | 0 mm | - | 485 W/m² | - |
| 1778059890 | 13.89° C | 55% | 1008.4 hPa | 0 mm | - | 485 W/m² | - |
| 1778059650 | 13.89° C | 53% | 1008.4 hPa | 0 mm | - | 325 W/m² | - |
| 1778059290 | 13.89° C | 50% | 1008.5 hPa | 0 mm | - | 304 W/m² | - |
| 1778058906 | 13.89° C | 44% | 1008.4 hPa | 0 mm | - | 661 W/m² | - |
| 1778058785 | 13.89° C | 41% | 1008.4 hPa | 0 mm | - | 740 W/m² | - |
| 1778058512 | 13.33° C | 36% | 1008.4 hPa | 0 mm | - | 608 W/m² | - |
| 1778058391 | 13.33° C | 36% | 1008.4 hPa | 0 mm | - | 450 W/m² | - |
| 1778057790 | 13.33° C | 34% | 1008.3 hPa | 0 mm | - | 406 W/m² | - |
| 1778057549 | 13.33° C | 36% | 1008.4 hPa | 0 mm | - | 441 W/m² | - |
| 1778057429 | 13.33° C | 35% | 1008.4 hPa | 0 mm | - | 375 W/m² | - |
| 1778057309 | 13.33° C | 30% | 1008.4 hPa | 0 mm | - | 339 W/m² | - |
| 1778057190 | 13.33° C | 29% | 1008.4 hPa | 0 mm | - | 339 W/m² | - |
| 1778056829 | 12.78° C | 30% | 1008.4 hPa | 0 mm | - | 327 W/m² | - |
| 1778056709 | 12.78° C | 29% | 1008.4 hPa | 0 mm | - | 313 W/m² | - |
| 1778056349 | 12.78° C | 26% | 1008.4 hPa | 0 mm | - | 345 W/m² | - |
| 1778056229 | 12.78° C | 24% | 1008.4 hPa | 0 mm | - | 346 W/m² | - |
| 1778056108 | 12.78° C | 24% | 1008.4 hPa | 0 mm | - | 357 W/m² | - |
| 1778055869 | 12.78° C | 24% | 1008.3 hPa | 0 mm | - | 348 W/m² | - |
| 1778055269 | 12.78° C | 11% | 1008.3 hPa | 0 mm | - | 343 W/m² | - |
| 1778055149 | 12.78° C | 8% | 1008.3 hPa | 0 mm | - | 368 W/m² | - |
| 1778055028 | 12.22° C | 6% | 1008.4 hPa | 0 mm | - | 443 W/m² | - |
| 1778054900 | 12.22° C | 3% | 1008.3 hPa | 0 mm | - | 433 W/m² | - |
| 1778054775 | 12.22° C | 6% | 1008.3 hPa | 0 mm | - | 450 W/m² | - |
| 1778054648 | 12.22° C | 5% | 1008.3 hPa | 0 mm | - | 450 W/m² | - |
* Rain latest hour (hover to see other rain measurements)
** Current wind speed in m/s (hover to see current wind gust speed)